"Period start","avg(HW err(1)/warn(2) (#))","avg(Visibility (m))","avg(Weather code (#))","avg(Precip intensity (mm/h))","min(HW err(1)/warn(2) (#))","max(HW err(1)/warn(2) (#))","std(HW err(1)/warn(2) (#))","med(HW err(1)/warn(2) (#))","min(Visibility (m))","max(Visibility (m))","std(Visibility (m))","med(Visibility (m))","min(Weather code (#))","max(Weather code (#))","std(Weather code (#))","med(Weather code (#))","min(Precip intensity (mm/h))","max(Precip intensity (mm/h))","std(Precip intensity (mm/h))","med(Precip intensity (mm/h))"
2017-09-02 00:00:00,0,43486,9,0.01,0,0,0,0,35851,49863,3944,44430,0,51,19,0,0.00,0.05,0.02,0.00
2017-09-02 00:10:00,1,39227,0,0.00,0,2,1,0,29700,50000,7576,37888,0,0,0,0,0.00,0.00,0.00,0.00
2017-09-02 00:20:00,0,41867,0,0.00,0,0,0,0,29885,50000,6795,42690,0,0,0,0,0.00,0.00,0.00,0.00
2017-09-02 00:30:00,0,48102,0,0.00,0,0,0,0,41753,50000,2528,49398,0,0,0,0,0.00,0.00,0.00,0.00
2017-09-02 00:40:00,0,44220,0,0.00,0,0,0,0,35309,50000,5020,44814,0,0,0,0,0.00,0.00,0.00,0.00
2017-09-02 00:50:00,0,43043,0,0.00,0,0,0,0,30463,50000,6529,45381,0,0,0,0,0.00,0.00,0.00,0.00
2017-09-02 01:00:00,0,48580,0,0.00,0,0,0,0,44121,50000,2032,49812,0,0,0,0,0.00,0.00,0.00,0.00
2017-09-02 01:10:00,0,45113,0,0.00,0,0,0,0,33730,50000,5310,46476,0,0,0,0,0.00,0.00,0.00,0.00
2017-09-02 01:20:00,0,45815,0,0.00,0,0,0,0,33925,50000,4588,46817,0,0,0,0,0.00,0.00,0.00,0.00
2017-09-02 01:30:00,0,46988,0,0.00,0,0,0,0,36645,50000,4004,48590,0,0,0,0,0.00,0.00,0.00,0.00
2017-09-02 01:40:00,0,46158,0,0.00,0,0,0,0,41667,50000,2298,45972,0,0,0,0,0.00,0.00,0.00,0.00
2017-09-02 01:50:00,0,42898,0,0.00,0,0,0,0,36558,47238,3644,44029,0,0,0,0,0.00,0.00,0.00,0.00
2017-09-02 02:00:00,0,37240,0,0.00,0,0,0,0,21625,49793,11418,39156,0,0,0,0,0.00,0.00,0.00,0.00
2017-09-02 02:10:00,0,41678,0,0.00,0,0,0,0,37053,50000,4319,40237,0,0,0,0,0.00,0.00,0.00,0.00
2017-09-02 02:20:00,0,38837,0,0.00,0,0,0,0,31086,46893,5127,38274,0,0,0,0,0.00,0.00,0.00,0.00
2017-09-02 02:30:00,0,47966,0,0.00,0,0,0,0,43782,50000,2290,48845,0,0,0,0,0.00,0.00,0.00,0.00
2017-09-02 02:40:00,0,45035,0,0.00,0,0,0,0,32263,50000,6024,47478,0,0,0,0,0.00,0.00,0.00,0.00
2017-09-02 02:50:00,0,40658,0,0.00,0,0,0,0,32061,50000,6325,42866,0,0,0,0,0.00,0.00,0.00,0.00
2017-09-02 03:00:00,0,43459,0,0.00,0,0,0,0,32885,50000,6532,45478,0,0,0,0,0.00,0.00,0.00,0.00
2017-09-02 03:10:00,0,41861,0,0.00,0,0,0,0,26013,50000,6960,42582,0,0,0,0,0.00,0.00,0.00,0.00
2017-09-02 03:20:00,0,42384,0,0.00,0,0,0,0,28202,50000,7480,45875,0,0,0,0,0.00,0.00,0.00,0.00
2017-09-02 03:30:00,0,39015,0,0.00,0,0,0,0,27964,47606,6450,40565,0,0,0,0,0.00,0.00,0.00,0.00
2017-09-02 03:40:00,0,46958,0,0.00,0,0,0,0,37903,50000,4161,50000,0,0,0,0,0.00,0.00,0.00,0.00
2017-09-02 03:50:00,0,41341,0,0.00,0,0,0,0,36813,46978,3155,40900,0,0,0,0,0.00,0.00,0.00,0.00
2017-09-02 04:00:00,0,48041,0,0.00,0,0,0,0,39511,50000,3133,49189,0,0,0,0,0.00,0.00,0.00,0.00
2017-09-02 04:10:00,0,41872,0,0.00,0,0,0,0,31735,50000,6078,42574,0,0,0,0,0.00,0.00,0.00,0.00
2017-09-02 04:20:00,0,49211,0,0.00,0,0,0,0,44231,50000,1776,50000,0,0,0,0,0.00,0.00,0.00,0.00
2017-09-02 04:30:00,0,48374,0,0.00,0,0,0,0,43415,50000,2429,49854,0,0,0,0,0.00,0.00,0.00,0.00
2017-09-02 04:40:00,0,46148,0,0.00,0,0,0,0,35558,50000,4869,48414,0,0,0,0,0.00,0.00,0.00,0.00
2017-09-02 04:50:00,0,41141,0,0.00,0,0,0,0,35442,48348,4652,40057,0,0,0,0,0.00,0.00,0.00,0.00
2017-09-02 05:00:00,0,45714,0,0.00,0,0,0,0,35360,50000,5124,48608,0,0,0,0,0.00,0.00,0.00,0.00
2017-09-02 05:10:00,0,47771,0,0.00,0,0,0,0,42554,50000,2557,48672,0,0,0,0,0.00,0.00,0.00,0.00
2017-09-02 05:20:00,0,45862,0,0.00,0,0,0,0,33819,50000,4908,47586,0,0,0,0,0.00,0.00,0.00,0.00
2017-09-02 05:30:00,0,49443,0,0.00,0,0,0,0,45338,50000,1380,50000,0,0,0,0,0.00,0.00,0.00,0.00
2017-09-02 05:40:00,0,47922,0,0.00,0,0,0,0,43821,50000,2511,49674,0,0,0,0,0.00,0.00,0.00,0.00
2017-09-02 05:50:00,0,48426,0,0.00,0,0,0,0,44156,50000,2010,49376,0,0,0,0,0.00,0.00,0.00,0.00
2017-09-02 06:00:00,0,48146,0,0.00,0,0,0,0,40693,50000,3275,50000,0,0,0,0,0.00,0.00,0.00,0.00
2017-09-02 06:10:00,0,45774,0,0.00,0,0,0,0,35124,50000,4558,46154,0,0,0,0,0.00,0.00,0.00,0.00
2017-09-02 06:20:00,0,47993,0,0.00,0,0,0,0,43485,50000,2298,48794,0,0,0,0,0.00,0.00,0.00,0.00
2017-09-02 06:30:00,0,49296,0,0.00,0,0,0,0,47318,50000,1047,50000,0,0,0,0,0.00,0.00,0.00,0.00
2017-09-02 06:40:00,0,49702,0,0.00,0,0,0,0,48278,50000,604,50000,0,0,0,0,0.00,0.00,0.00,0.00
2017-09-02 06:50:00,0,48387,0,0.00,0,0,0,0,42686,50000,2180,49332,0,0,0,0,0.00,0.00,0.00,0.00
2017-09-02 07:00:00,0,46700,0,0.00,0,0,0,0,40051,50000,3654,48227,0,0,0,0,0.00,0.00,0.00,0.00
2017-09-02 07:10:00,0,49321,0,0.00,0,0,0,0,44670,50000,1610,50000,0,0,0,0,0.00,0.00,0.00,0.00
2017-09-02 07:20:00,0,49550,0,0.00,0,0,0,0,48482,50000,591,50000,0,0,0,0,0.00,0.00,0.00,0.00
2017-09-02 07:30:00,0,49987,0,0.00,0,0,0,0,49873,50000,38,50000,0,0,0,0,0.00,0.00,0.00,0.00
2017-09-02 07:40:00,0,49353,0,0.00,0,0,0,0,44618,50000,1611,50000,0,0,0,0,0.00,0.00,0.00,0.00
2017-09-02 07:50:00,0,20105,62,27.34,0,0,0,0,2059,44766,14527,18798,61,63,1,62,0.85,124.20,38.28,8.33
2017-09-02 08:00:00,0,39345,30,0.05,0,0,0,0,20848,50000,10339,41264,0,61,30,30,0.00,0.25,0.08,0.00
2017-09-02 08:10:00,0,33571,24,2.62,0,0,0,0,10647,50000,17260,41304,0,62,30,0,0.00,12.25,4.21,0.00
2017-09-02 08:20:00,0,12971,56,2.96,0,0,0,0,9477,20509,3246,11952,52,61,4,52,1.20,5.25,1.20,2.78
2017-09-02 08:30:00,0,39909,16,0.01,0,0,0,0,25845,47835,6286,39796,0,52,24,0,0.00,0.10,0.03,0.00
2017-09-02 08:40:00,0,45856,0,0.00,0,0,0,0,38090,50000,3902,47256,0,0,0,0,0.00,0.00,0.00,0.00
2017-09-02 08:50:00,0,47309,0,0.00,0,0,0,0,42030,50000,2899,48198,0,0,0,0,0.00,0.00,0.00,0.00
2017-09-02 09:00:00,0,49481,0,0.00,0,0,0,0,47769,50000,721,50000,0,0,0,0,0.00,0.00,0.00,0.00
2017-09-02 09:10:00,0,49152,0,0.00,0,0,0,0,45962,50000,1382,50000,0,0,0,0,0.00,0.00,0.00,0.00
2017-09-02 09:20:00,0,49217,0,0.00,0,0,0,0,46496,50000,1051,49599,0,0,0,0,0.00,0.00,0.00,0.00
2017-09-02 09:30:00,0,49754,0,0.00,0,0,0,0,48258,50000,543,50000,0,0,0,0,0.00,0.00,0.00,0.00
2017-09-02 09:40:00,0,29193,33,0.34,0,0,0,0,12146,50000,14426,24736,0,61,27,52,0.00,0.95,0.32,0.35
2017-09-02 09:50:00,0,14803,52,0.42,0,0,0,0,10232,23019,3681,15252,51,52,0,52,0.15,0.70,0.20,0.40
2017-09-02 10:00:00,0,32348,28,0.03,0,0,0,0,21891,44442,7889,33252,0,61,29,26,0.00,0.10,0.04,0.00
2017-09-02 10:10:00,0,36517,53,0.65,0,0,0,0,30110,44370,4362,34802,51,61,4,52,0.25,1.10,0.28,0.62
2017-09-02 10:20:00,0,35951,53,0.41,0,0,0,0,25332,47144,5981,35186,51,61,4,51,0.05,0.80,0.25,0.35
2017-09-02 10:30:00,0,29669,46,0.40,0,0,0,0,26476,32648,2112,29386,0,52,16,52,0.00,1.25,0.38,0.40
2017-09-02 10:40:00,0,39852,0,0.00,0,0,0,0,34138,46825,3592,39132,0,0,0,0,0.00,0.00,0.00,0.00
2017-09-02 10:50:00,0,39155,12,0.09,0,0,0,0,18711,50000,11593,44342,0,61,24,0,0.00,0.50,0.18,0.00
2017-09-02 11:00:00,0,31532,51,0.30,0,0,0,0,24622,37360,3602,32297,51,52,0,51,0.10,0.55,0.14,0.28
2017-09-02 11:10:00,0,33296,51,0.16,0,0,0,0,26100,41768,5796,34181,41,61,6,51,0.00,0.55,0.15,0.10
2017-09-02 11:20:00,0,45165,33,0.05,0,0,0,0,40036,50000,2672,45474,0,61,28,41,0.00,0.15,0.05,0.03
2017-09-02 11:30:00,0,49658,0,0.00,0,0,0,0,47453,50000,780,50000,0,0,0,0,0.00,0.00,0.00,0.00
2017-09-02 11:40:00,0,50000,0,0.00,0,0,0,0,50000,50000,0,50000,0,0,0,0,0.00,0.00,0.00,0.00
2017-09-02 11:50:00,0,49438,0,0.00,0,0,0,0,46570,50000,1157,50000,0,0,0,0,0.00,0.00,0.00,0.00
2017-09-02 12:00:00,0,50000,0,0.00,0,0,0,0,50000,50000,0,50000,0,0,0,0,0.00,0.00,0.00,0.00
2017-09-02 12:10:00,0,50000,0,0.00,0,0,0,0,50000,50000,0,50000,0,0,0,0,0.00,0.00,0.00,0.00
2017-09-02 12:20:00,0,50000,0,0.00,0,0,0,0,50000,50000,0,50000,0,0,0,0,0.00,0.00,0.00,0.00
2017-09-02 12:30:00,0,50000,0,0.00,0,0,0,0,50000,50000,0,50000,0,0,0,0,0.00,0.00,0.00,0.00
2017-09-02 12:40:00,0,50000,0,0.00,0,0,0,0,50000,50000,0,50000,0,0,0,0,0.00,0.00,0.00,0.00
2017-09-02 12:50:00,0,50000,0,0.00,0,0,0,0,50000,50000,0,50000,0,0,0,0,0.00,0.00,0.00,0.00
2017-09-02 13:00:00,0,49977,0,0.00,0,0,0,0,49774,50000,68,50000,0,0,0,0,0.00,0.00,0.00,0.00
2017-09-02 13:10:00,0,49969,0,0.00,0,0,0,0,49693,50000,92,50000,0,0,0,0,0.00,0.00,0.00,0.00
2017-09-02 13:20:00,0,50000,0,0.00,0,0,0,0,50000,50000,0,50000,0,0,0,0,0.00,0.00,0.00,0.00
2017-09-02 13:30:00,0,50000,0,0.00,0,0,0,0,50000,50000,0,50000,0,0,0,0,0.00,0.00,0.00,0.00
2017-09-02 13:40:00,0,49653,0,0.00,0,0,0,0,46531,50000,1041,50000,0,0,0,0,0.00,0.00,0.00,0.00
2017-09-02 13:50:00,0,49693,22,0.08,0,0,0,0,46929,50000,921,50000,0,61,28,0,0.00,0.55,0.16,0.00
2017-09-02 14:00:00,0,49662,51,0.45,0,0,0,0,47539,50000,759,50000,51,51,0,51,0.05,0.90,0.26,0.47
2017-09-02 14:10:00,0,48847,55,1.27,0,0,0,0,43577,50000,1939,50000,51,61,5,52,0.25,6.55,1.87,0.50
2017-09-02 14:20:00,0,44430,52,0.95,0,0,0,0,35757,50000,5402,47376,51,61,3,52,0.15,2.65,0.72,0.62
2017-09-02 14:30:00,0,33760,52,1.45,0,0,0,0,18907,50000,10798,31664,52,52,0,52,0.55,2.95,0.70,1.33
2017-09-02 14:40:00,0,19836,57,2.80,0,0,0,0,16702,23887,2393,20004,52,61,4,61,0.45,5.20,1.22,2.85
2017-09-02 14:50:00,0,28647,56,0.30,0,0,0,0,18903,36740,4634,29148,52,61,4,52,0.10,0.65,0.21,0.15
2017-09-02 15:00:00,0,34347,37,0.06,0,0,0,0,21818,41660,6755,37098,0,61,30,61,0.00,0.15,0.06,0.05
2017-09-02 15:10:00,0,35984,0,0.00,0,0,0,0,19130,50000,12243,33520,0,0,0,0,0.00,0.00,0.00,0.00
2017-09-02 15:20:00,0,50000,0,0.00,0,0,0,0,50000,50000,0,50000,0,0,0,0,0.00,0.00,0.00,0.00
2017-09-02 15:30:00,0,50000,0,0.00,0,0,0,0,50000,50000,0,50000,0,0,0,0,0.00,0.00,0.00,0.00
2017-09-02 15:40:00,0,50000,0,0.00,0,0,0,0,50000,50000,0,50000,0,0,0,0,0.00,0.00,0.00,0.00
2017-09-02 15:50:00,0,50000,0,0.00,0,0,0,0,50000,50000,0,50000,0,0,0,0,0.00,0.00,0.00,0.00
2017-09-02 16:00:00,0,50000,0,0.00,0,0,0,0,50000,50000,0,50000,0,0,0,0,0.00,0.00,0.00,0.00
2017-09-02 16:10:00,0,49970,0,0.00,0,0,0,0,49699,50000,90,50000,0,0,0,0,0.00,0.00,0.00,0.00
2017-09-02 16:20:00,0,49762,0,0.00,0,0,0,0,47621,50000,714,50000,0,0,0,0,0.00,0.00,0.00,0.00
2017-09-02 16:30:00,0,49950,0,0.00,0,0,0,0,49497,50000,151,50000,0,0,0,0,0.00,0.00,0.00,0.00
2017-09-02 16:40:00,0,48265,22,0.07,0,0,0,0,40104,50000,3132,49874,0,61,28,0,0.00,0.30,0.11,0.00
2017-09-02 16:50:00,0,40606,57,1.99,0,0,0,0,23775,50000,10432,45100,51,61,5,61,0.00,6.50,2.39,1.05
2017-09-02 17:00:00,0,15979,58,7.40,0,0,0,0,11803,24009,3685,14682,52,62,4,61,1.70,15.05,3.98,8.70
2017-09-02 17:10:00,0,20239,62,12.77,0,0,0,0,10986,42993,9010,17104,61,62,0,62,2.60,21.75,6.29,13.45
2017-09-02 17:20:00,0,15060,62,12.37,0,0,0,0,11282,18977,2673,14739,61,62,0,62,7.70,24.10,5.11,9.78
2017-09-02 17:30:00,0,16372,61,7.80,0,0,0,0,12504,19311,1984,16297,61,62,0,61,3.10,21.05,4.95,5.85
2017-09-02 17:40:00,0,22576,61,6.09,0,0,0,0,18127,32090,4179,21950,61,62,0,61,1.05,11.60,3.00,6.92
2017-09-02 17:50:00,0,23628,62,11.65,0,0,0,0,19190,29499,3631,22244,61,62,0,62,7.20,16.30,3.29,10.93
2017-09-02 18:00:00,0,22329,62,9.37,0,0,0,0,17115,28344,3892,21962,61,62,0,62,4.70,12.65,2.47,10.07
2017-09-02 18:10:00,0,13896,62,11.59,0,0,0,0,10464,21266,3601,12318,61,62,0,62,4.75,20.85,5.44,10.72
2017-09-02 18:20:00,0,15082,61,9.72,0,0,0,0,11396,18533,2222,15461,61,62,0,61,5.05,22.15,4.66,9.00
2017-09-02 18:30:00,0,22956,61,4.75,0,0,0,0,16781,28595,3789,23584,61,62,0,61,1.55,12.35,3.33,4.05
2017-09-02 18:40:00,0,30335,61,0.92,0,0,0,0,22731,39881,5071,30283,61,61,0,61,0.30,1.90,0.56,0.65
2017-09-02 18:50:00,0,24096,61,9.25,0,0,0,0,8562,48750,13722,22050,61,62,0,61,0.05,38.55,12.17,3.17
2017-09-02 19:00:00,0,47841,53,0.17,0,0,0,0,42728,50000,2480,48892,51,61,4,51,0.05,0.50,0.17,0.08
2017-09-02 19:10:00,0,46295,51,0.61,0,0,0,0,40120,50000,2991,46784,51,52,0,51,0.20,1.25,0.32,0.53
2017-09-02 19:20:00,0,49071,53,0.76,0,0,0,0,43955,50000,1819,50000,51,61,4,51,0.00,3.35,1.06,0.38
2017-09-02 19:30:00,0,45462,61,1.56,0,0,0,0,34722,50000,5643,48494,61,61,0,61,0.45,4.55,1.10,1.20
2017-09-02 19:40:00,0,43789,55,1.07,0,0,0,0,36982,50000,4211,44480,52,61,4,52,0.55,2.25,0.56,0.97
2017-09-02 19:50:00,0,47169,52,0.72,0,0,0,0,39387,50000,3466,48753,51,52,0,52,0.25,1.30,0.36,0.62
2017-09-02 20:00:00,0,49608,51,0.07,0,0,0,0,46936,50000,926,50000,51,51,0,51,0.00,0.15,0.05,0.05
2017-09-02 20:10:00,0,50000,15,0.01,0,0,0,0,50000,50000,0,50000,0,51,23,0,0.00,0.05,0.02,0.00
2017-09-02 20:20:00,0,49907,0,0.00,0,0,0,0,49068,50000,280,50000,0,0,0,0,0.00,0.00,0.00,0.00
2017-09-02 20:30:00,0,50000,0,0.00,0,0,0,0,50000,50000,0,50000,0,0,0,0,0.00,0.00,0.00,0.00
2017-09-02 20:40:00,0,49984,0,0.00,0,0,0,0,49837,50000,49,50000,0,0,0,0,0.00,0.00,0.00,0.00
2017-09-02 20:50:00,0,42668,58,1.19,0,0,0,0,29902,50000,7734,47290,52,61,4,61,0.00,2.40,0.82,1.10
2017-09-02 21:00:00,0,39626,56,1.73,0,0,0,0,30939,50000,6237,37764,52,61,4,52,0.80,2.65,0.47,1.73
2017-09-02 21:10:00,0,33477,57,1.48,0,0,0,0,22839,41194,5851,33962,52,61,4,61,0.80,2.60,0.51,1.38
2017-09-02 21:20:00,0,21812,61,1.81,0,0,0,0,19277,26777,2297,21272,61,61,0,61,0.85,4.10,0.88,1.58
2017-09-02 21:30:00,0,13696,58,5.98,0,0,0,0,6918,17700,3276,14224,52,62,4,61,2.05,15.05,3.89,4.55
2017-09-02 21:40:00,0,8418,62,25.37,0,0,0,0,2874,13607,3435,8548,61,63,1,62,7.65,88.45,22.88,18.23
2017-09-02 21:50:00,0,16212,61,6.09,0,0,0,0,12388,23245,3541,15325,61,61,0,61,3.05,8.70,1.58,5.78
2017-09-02 22:00:00,0,11325,61,7.94,0,0,0,0,7939,13931,1736,11240,61,62,0,61,4.65,12.45,2.66,7.62
2017-09-02 22:10:00,0,10691,62,11.48,0,0,0,0,8661,13253,1550,11090,61,62,0,62,6.40,18.15,3.28,12.00
2017-09-02 22:20:00,0,12440,62,13.71,0,0,0,0,9467,14703,1764,12665,61,62,0,62,8.40,18.45,2.61,13.45
2017-09-02 22:30:00,0,6877,62,19.40,0,0,0,0,4225,11514,1953,6156,62,62,0,62,13.15,33.15,7.03,16.65
2017-09-02 22:40:00,0,8278,62,11.95,0,0,0,0,6309,10002,1047,8148,61,62,0,62,7.10,18.05,3.38,10.88
2017-09-02 22:50:00,0,9136,62,25.21,0,0,0,0,7550,10605,916,9086,62,62,0,62,11.45,37.50,8.26,24.22
2017-09-02 23:00:00,0,13191,62,26.27,0,0,0,0,7794,18558,2822,13532,62,63,0,62,11.40,46.80,10.18,26.02
2017-09-02 23:10:00,0,18881,62,11.14,0,0,0,0,12236,23836,3816,19294,61,62,0,62,5.10,17.80,4.23,10.20
2017-09-02 23:20:00,0,19621,61,6.71,0,0,0,0,15959,23226,2401,19408,61,62,0,61,2.80,10.90,2.41,6.43
2017-09-02 23:30:00,0,24565,61,2.32,0,0,0,0,17106,31130,5069,26655,61,61,0,61,0.50,4.35,1.12,2.12
2017-09-02 23:40:00,0,18714,61,4.22,0,0,0,0,14681,22959,2153,18954,61,61,0,61,2.40,6.20,1.33,4.18
2017-09-02 23:50:00,0,32115,61,2.59,0,0,0,0,20885,48990,8355,31931,61,61,0,61,0.95,4.90,1.28,2.17
